Total_Precipitation_Accumulation
0.00 0.00 0.00 0.00 0.00 0.00 0.00 0.00 0.00 0.00 0.00 0.00 0.00 0.00 0.00 0.00 0.00 0.00 0.00 0.00 0.00 0.01 0.02 0.06 0.16 0.36 0.52 0.89 1.08 0.78 0.46 0.28 0.17 0.15 0.14 0.12 0.11 0.11 0.10 0.09 0.08 0.11 0.14 0.14
0.00 0.00 0.00 0.00 0.00 0.00 0.00 0.00 0.00 0.00 0.00 0.00 0.00 0.00 0.00 0.00 0.00 0.00 0.00 0.00 0.00 0.01 0.02 0.05 0.12 0.27 0.43 0.58 0.62 0.60 0.54 0.49 0.33 0.26 0.26 0.26 0.24 0.21 0.20 0.22 0.28 0.30 0.25 0.18
0.00 0.00 0.00 0.00 0.00 0.00 0.00 0.00 0.00 0.00 0.00 0.00 0.00 0.00 0.00 0.00 0.00 0.00 0.00 0.00 0.00 0.01 0.02 0.04 0.11 0.24 0.37 0.44 0.51 0.57 0.59 0.60 0.47 0.39 0.38 0.38 0.38 0.37 0.38 0.42 0.45 0.39 0.29 0.19
0.00 0.00 0.00 0.00 0.00 0.00 0.00 0.00 0.00 0.00 0.00 0.00 0.00 0.00 0.00 0.00 0.00 0.00 0.01 0.01 0.01 0.01 0.02 0.03 0.08 0.16 0.30 0.42 0.49 0.52 0.60 0.65 0.64 0.60 0.53 0.51 0.50 0.48 0.47 0.39 0.35 0.27 0.19 0.13
0.00 0.00 0.00 0.00 0.00 0.00 0.00 0.00 0.00 0.00 0.00 0.00 0.00 0.00 0.00 0.00 0.00 0.00 0.01 0.02 0.02 0.01 0.02 0.04 0.07 0.14 0.29 0.41 0.47 0.57 0.63 0.65 0.67 0.65 0.62 0.58 0.46 0.36 0.30 0.24 0.19 0.16 0.13 0.10
0.00 0.00 0.00 0.00 0.00 0.00 0.00 0.00 0.00 0.00 0.00 0.00 0.00 0.00 0.00 0.00 0.00 0.01 0.01 0.02 0.02 0.02 0.02 0.04 0.07 0.15 0.25 0.34 0.44 0.53 0.58 0.59 0.59 0.59 0.54 0.41 0.35 0.32 0.28 0.23 0.18 0.14 0.10 0.07
0.00 0.00 0.00 0.00 0.00 0.00 0.00 0.00 0.00 0.00 0.00 0.00 0.00 0.00 0.00 0.00 0.00 0.00 0.01 0.01 0.02 0.02 0.03 0.05 0.10 0.14 0.20 0.27 0.37 0.44 0.46 0.44 0.41 0.34 0.28 0.26 0.26 0.24 0.19 0.15 0.11 0.08 0.06 0.04
0.00 0.00 0.00 0.00 0.00 0.00 0.00 0.00 0.00 0.00 0.00 0.00 0.00 0.00 0.00 0.00 0.01 0.02 0.03 0.02 0.02 0.03 0.04 0.07 0.11 0.15 0.22 0.27 0.30 0.31 0.28 0.23 0.18 0.15 0.16 0.16 0.15 0.13 0.11 0.09 0.06 0.04 0.02 0.02
0.00 0.00 0.00 0.00 0.00 0.00 0.00 0.00 0.00 0.00 0.00 0.00 0.00 0.00 0.01 0.00 0.01 0.04 0.05 0.04 0.03 0.04 0.07 0.11 0.15 0.19 0.23 0.21 0.20 0.17 0.15 0.12 0.10 0.09 0.09 0.07 0.07 0.07 0.07 0.06 0.04 0.03 0.02 0.01
0.00 0.00 0.00 0.00 0.00 0.00 0.00 0.00 0.00 0.00 0.00 0.00 0.00 0.00 0.01 0.01 0.01 0.03 0.04 0.04 0.05 0.09 0.14 0.17 0.18 0.18 0.16 0.14 0.13 0.12 0.11 0.09 0.08 0.07 0.05 0.05 0.05 0.04 0.05 0.04 0.03 0.03 0.02 0.02
0.00 0.00 0.00 0.00 0.00 0.00 0.00 0.00 0.00 0.00 0.00 0.00 0.00 0.01 0.01 0.01 0.01 0.03 0.04 0.06 0.11 0.18 0.20 0.21 0.18 0.15 0.13 0.12 0.12 0.10 0.10 0.09 0.08 0.07 0.06 0.05 0.05 0.04 0.04 0.03 0.03 0.02 0.02 0.02
0.00 0.00 0.00 0.00 0.00 0.00 0.00 0.00 0.00 0.00 0.00 0.00 0.00 0.01 0.01 0.01 0.03 0.07 0.09 0.10 0.16 0.23 0.27 0.26 0.21 0.16 0.14 0.12 0.11 0.11 0.12 0.11 0.10 0.08 0.06 0.05 0.04 0.04 0.03 0.03 0.03 0.03 0.03 0.03
0.00 0.00 0.00 0.00 0.00 0.00 0.00 0.00 0.00 0.00 0.00 0.00 0.00 0.02 0.02 0.02 0.07 0.14 0.17 0.16 0.22 0.35 0.39 0.33 0.24 0.16 0.12 0.11 0.11 0.11 0.13 0.12 0.09 0.06 0.04 0.03 0.02 0.02 0.02 0.03 0.03 0.03 0.03 0.04
0.00 0.00 0.00 0.00 0.00 0.00 0.00 0.01 0.01 0.01 0.01 0.01 0.01 0.04 0.05 0.12 0.20 0.21 0.24 0.26 0.33 0.41 0.35 0.26 0.20 0.16 0.14 0.13 0.13 0.12 0.11 0.09 0.06 0.04 0.03 0.03 0.02 0.03 0.03 0.04 0.04 0.04 0.05 0.05
0.00 0.00 0.00 0.00 0.00 0.00 0.01 0.01 0.02 0.02 0.03 0.03 0.03 0.08 0.13 0.23 0.31 0.30 0.27 0.26 0.30 0.31 0.29 0.29 0.26 0.23 0.18 0.14 0.12 0.11 0.10 0.09 0.07 0.05 0.04 0.04 0.04 0.04 0.05 0.06 0.06 0.06 0.06 0.05
0.00 0.00 0.00 0.00 0.00 0.00 0.01 0.01 0.01 0.02 0.03 0.03 0.05 0.11 0.16 0.22 0.24 0.24 0.23 0.23 0.28 0.39 0.43 0.41 0.32 0.23 0.17 0.15 0.15 0.14 0.13 0.11 0.09 0.08 0.08 0.07 0.06 0.06 0.07 0.07 0.07 0.07 0.07 0.06
0.00 0.00 0.01 0.00 0.00 0.00 0.00 0.00 0.00 0.01 0.01 0.01 0.05 0.10 0.10 0.12 0.14 0.15 0.16 0.19 0.28 0.38 0.39 0.32 0.24 0.18 0.18 0.20 0.21 0.21 0.20 0.18 0.16 0.14 0.12 0.10 0.09 0.09 0.09 0.07 0.06 0.05 0.04 0.03
0.00 0.02 0.03 0.01 0.01 0.01 0.00 0.00 0.01 0.01 0.02 0.02 0.02 0.02 0.03 0.04 0.07 0.09 0.11 0.16 0.21 0.25 0.24 0.21 0.19 0.20 0.24 0.28 0.28 0.27 0.24 0.21 0.18 0.17 0.15 0.13 0.11 0.10 0.08 0.06 0.05 0.03 0.02 0.02
0.00 0.03 0.07 0.06 0.06 0.03 0.01 0.01 0.01 0.01 0.02 0.02 0.02 0.02 0.02 0.03 0.07 0.09 0.08 0.11 0.15 0.18 0.19 0.19 0.23 0.29 0.34 0.34 0.31 0.27 0.25 0.22 0.20 0.17 0.13 0.10 0.07 0.06 0.05 0.04 0.03 0.02 0.02 0.02
0.01 0.03 0.10 0.13 0.15 0.12 0.07 0.02 0.01 0.02 0.06 0.03 0.02 0.02 0.03 0.04 0.09 0.10 0.08 0.08 0.09 0.11 0.16 0.24 0.33 0.38 0.39 0.35 0.28 0.24 0.20 0.16 0.13 0.09 0.06 0.04 0.03 0.02 0.02 0.02 0.02 0.02 0.02 0.01
0.07 0.08 0.15 0.22 0.26 0.23 0.12 0.06 0.04 0.09 0.11 0.09 0.06 0.06 0.08 0.12 0.15 0.12 0.07 0.06 0.08 0.14 0.24 0.31 0.35 0.36 0.31 0.23 0.17 0.14 0.11 0.08 0.05 0.03 0.02 0.01 0.01 0.01 0.01 0.01 0.01 0.02 0.01 0.01
0.19 0.20 0.22 0.25 0.32 0.36 0.14 0.09 0.12 0.14 0.11 0.12 0.10 0.10 0.12 0.15 0.13 0.10 0.08 0.10 0.14 0.23 0.31 0.34 0.34 0.29 0.21 0.14 0.09 0.08 0.06 0.03 0.02 0.01 0.01 0.01 0.01 0.00 0.00 0.01 0.01 0.01 0.01 0.01
0.40 0.32 0.31 0.34 0.35 0.24 0.11 0.08 0.08 0.10 0.12 0.12 0.12 0.13 0.16 0.19 0.20 0.18 0.19 0.22 0.27 0.33 0.35 0.31 0.25 0.19 0.12 0.07 0.05 0.04 0.02 0.01 0.01 0.01 0.01 0.01 0.01 0.00 0.00 0.00 0.00 0.01 0.01 0.01
0.49 0.39 0.32 0.30 0.29 0.22 0.15 0.10 0.07 0.08 0.12 0.15 0.18 0.21 0.26 0.31 0.31 0.30 0.29 0.31 0.31 0.30 0.24 0.17 0.11 0.07 0.04 0.03 0.02 0.01 0.01 0.00 0.01 0.01 0.01 0.01 0.01 0.01 0.00 0.00 0.00 0.01 0.01 0.01
0.33 0.48 0.54 0.51 0.44 0.33 0.20 0.14 0.15 0.16 0.19 0.26 0.32 0.33 0.35 0.34 0.31 0.28 0.27 0.24 0.20 0.14 0.09 0.06 0.05 0.03 0.02 0.01 0.01 0.00 0.00 0.01 0.01 0.01 0.01 0.01 0.01 0.01 0.01 0.00 0.00 0.01 0.01 0.01
0.12 0.35 0.69 0.81 0.58 0.46 0.36 0.32 0.34 0.34 0.33 0.34 0.32 0.30 0.28 0.24 0.19 0.16 0.14 0.12 0.09 0.07 0.05 0.04 0.03 0.01 0.01 0.00 0.00 0.00 0.00 0.00 0.01 0.01 0.01 0.01 0.00 0.00 0.00 0.01 0.01 0.01 0.00 0.00